THY2RH EFHK-LTFM

Flight info

Callsign THY2RH
Flight time N/A
Altitude 34000
Route KOIVU Y123 LARTI DCT OSLAX/N0470F330 DCT NEVTO/N0467F320 DCT BERIL/N0466F330 DCT NAPOT/N0466F340 DCT SUWGI DCT TOXAR/N0462F330 DCT LIBGA/N0458F340 DCT ROBTU/N0457F350 DCT KENIN DCT EBILO DCT RONBU DCT BUVAK DCT RIXEN
Aircraft B738/M-SDE2E3FGHIRWXY/LB1

Departure

Time 2026-04-26 10:02
Airport Helsinki Vantaa Airport (EFHK)

Arrival

Time N/A
Airport İstanbul Airport (LTFM)
Time Latitude Longitude Altitude Speed Heading
2026-04-26 09:23 60.31705 24.96114 165 ft 0 kts 130°
2026-04-26 09:42 60.31713 24.96094 165 ft 3 kts 130°
2026-04-26 09:42 60.31726 24.96063 166 ft 3 kts 128°
2026-04-26 09:43 60.31739 24.96030 165 ft 3 kts 123°
2026-04-26 09:43 60.31749 24.95995 166 ft 3 kts 108°
2026-04-26 09:43 60.31752 24.95961 166 ft 3 kts 67°
2026-04-26 09:43 60.31749 24.95948 166 ft 0 kts 47°
2026-04-26 09:48 60.31750 24.95950 166 ft 1 kts 47°
2026-04-26 09:48 60.31770 24.95994 166 ft 6 kts 47°
2026-04-26 09:48 60.31800 24.96060 166 ft 8 kts 47°
2026-04-26 09:48 60.31845 24.96132 166 ft 10 kts 11°
2026-04-26 09:49 60.31895 24.96128 166 ft 7 kts 15°
2026-04-26 09:49 60.31949 24.96211 166 ft 13 kts 44°
2026-04-26 09:49 60.32019 24.96362 166 ft 16 kts 47°
2026-04-26 09:49 60.32105 24.96551 166 ft 19 kts 48°
2026-04-26 09:50 60.32182 24.96720 166 ft 10 kts 46°
2026-04-26 09:50 60.32227 24.96834 164 ft 10 kts 63°
2026-04-26 09:50 60.32195 24.96959 164 ft 14 kts 148°
2026-04-26 09:50 60.32089 24.97071 165 ft 21 kts 153°
2026-04-26 09:51 60.31933 24.97231 162 ft 29 kts 152°
2026-04-26 09:51 60.31750 24.97420 159 ft 29 kts 153°
2026-04-26 09:51 60.31578 24.97598 155 ft 27 kts 153°
2026-04-26 09:51 60.31416 24.97765 155 ft 25 kts 153°
2026-04-26 09:52 60.31264 24.97922 157 ft 24 kts 153°
2026-04-26 09:52 60.30980 24.98203 157 ft 22 kts 156°
2026-04-26 09:52 60.30842 24.98326 158 ft 21 kts 156°
2026-04-26 09:53 60.30740 24.98414 157 ft 15 kts 157°
2026-04-26 09:53 60.30688 24.98466 157 ft 5 kts 143°
2026-04-26 09:53 60.30681 24.98481 157 ft 0 kts 133°
2026-04-26 10:00 60.30669 24.98522 156 ft 7 kts 111°
2026-04-26 10:00 60.30673 24.98652 155 ft 8 kts 67°
2026-04-26 10:00 60.30713 24.98757 157 ft 9 kts 32°
2026-04-26 10:01 60.30767 24.98767 157 ft 3 kts 338°
2026-04-26 10:01 60.30774 24.98760 157 ft 0 kts 333°
2026-04-26 10:02 60.30818 24.98713 156 ft 30 kts 333°
2026-04-26 10:02 60.31218 24.98305 158 ft 96 kts 333°
2026-04-26 10:02 60.31969 24.97537 256 ft 139 kts 333°
2026-04-26 10:02 60.32880 24.96662 932 ft 145 kts 335°
2026-04-26 10:03 60.33704 24.95528 1897 ft 137 kts 321°
2026-04-26 10:03 60.34338 24.93997 2550 ft 155 kts 314°
2026-04-26 10:03 60.34954 24.92012 2837 ft 180 kts 305°
2026-04-26 10:03 60.35407 24.89426 2981 ft 213 kts 288°
2026-04-26 10:04 60.35395 24.86199 3168 ft 253 kts 266°
2026-04-26 10:04 60.34635 24.82791 3893 ft 271 kts 243°
2026-04-26 10:04 60.33555 24.79759 5066 ft 262 kts 245°
2026-04-26 10:04 60.32610 24.76603 5738 ft 269 kts 249°
2026-04-26 10:05 60.31686 24.73273 6484 ft 273 kts 249°
2026-04-26 10:05 60.30748 24.69910 7263 ft 278 kts 245°
2026-04-26 10:05 60.29383 24.66990 7939 ft 298 kts 218°
2026-04-26 10:05 60.27473 24.65198 8717 ft 309 kts 198°
2026-04-26 10:06 60.25359 24.64294 9484 ft 314 kts 193°
2026-04-26 10:06 60.23185 24.63518 10098 ft 322 kts 192°
2026-04-26 10:06 60.20907 24.62709 10306 ft 344 kts 192°
2026-04-26 10:06 60.18477 24.61824 10508 ft 365 kts 192°
2026-04-26 10:07 60.15917 24.60870 10677 ft 385 kts 193°
2026-04-26 10:07 60.13245 24.59856 11136 ft 394 kts 193°
2026-04-26 10:07 60.10554 24.58830 11983 ft 392 kts 192°
2026-04-26 10:07 60.07862 24.57837 12664 ft 397 kts 189°
2026-04-26 10:08 60.05108 24.57935 13390 ft 399 kts 169°
2026-04-26 10:08 60.02371 24.59148 13894 ft 407 kts 167°
2026-04-26 10:08 59.99624 24.60362 14741 ft 400 kts 168°
2026-04-26 10:08 59.96930 24.61505 15697 ft 394 kts 168°
2026-04-26 10:09 59.94236 24.62609 16257 ft 398 kts 168°
2026-04-26 10:09 59.91494 24.63711 16736 ft 404 kts 169°
2026-04-26 10:09 59.88724 24.64816 17217 ft 409 kts 169°
2026-04-26 10:09 59.85932 24.65915 17887 ft 408 kts 171°
2026-04-26 10:10 59.83112 24.66081 18481 ft 407 kts 191°
2026-04-26 10:10 59.80358 24.64716 18944 ft 410 kts 195°
2026-04-26 10:10 59.77564 24.63298 19215 ft 418 kts 194°
2026-04-26 10:10 59.74726 24.61932 19718 ft 420 kts 194°
2026-04-26 10:11 59.71867 24.60595 20137 ft 424 kts 193°
2026-04-26 10:11 59.68994 24.59266 20597 ft 427 kts 193°
2026-04-26 10:11 59.66080 24.57922 20894 ft 433 kts 193°
2026-04-26 10:11 59.63134 24.56589 21360 ft 435 kts 193°
2026-04-26 10:12 59.60164 24.55260 21627 ft 442 kts 194°